Regional Weather Roundup
Issued by NWS

Home | Current Version | Previous Version | Graphics & Text | Print | Product List | Glossary On
Versions: 1 2 3 4 5 6 7 8 9 10 11 12 13 14 15 16 17 18 19 20 21 22 23 24 25 26 27 28 29 30 31 32 33 34 35 36 37 38 39 40 41 42 43 44 45 46 47 48 49 50
000
ASUS43 KDTX 011410
RWRMI
MICHIGAN HOURLY REGIONAL WEATHER ROUNDUP
NATIONAL WEATHER SERVICE DETROIT/PONTIAC MI
1000 AM EDT FRI AUG 01 2014

NOTE: "FAIR" INDICATES FEW OR NO CLOUDS BELOW 12,000 FEET WITH NO
SIGNIFICANT WEATHER AND/OR OBSTRUCTION TO VISIBILITY.

MIZ047>049-052>055-059>063-066>070-074>076-081>083-011500-
SOUTHEAST LOWER MICHIGAN

CITY           SKY/WX    TMP DP  RH WIND       PRES   REMARKS
ADRIAN         SUNNY     71  63  75 VRB3      30.12S
ALMA           SUNNY     69  63  81 SW3       30.09S
ANN ARBOR      SUNNY     70  61  73 MISG      30.11S
BAD AXE        SUNNY     69  64  82 SW5       30.09R
DETROIT CITY   SUNNY     75  61  61 SW6       30.10S
DETROIT        MOSUNNY   71  62  73 SW5       30.11S
FLINT          SUNNY     73  62  68 W6        30.09S
GROSSE ILE     SUNNY     73  64  73 W5        30.09F
HILLSDALE      SUNNY     73  65  74 CALM      30.12S
HOWELL         SUNNY     70  62  75 SW3       30.11S

CITY           SKY/WX    TMP DP  RH WIND       PRES   REMARKS
JACKSON        SUNNY     72  62  71 W5        30.11S
LAMBERTVILLE   SUNNY     72  63  73 W3        30.12S
LANSING        SUNNY     71  61  70 SW6       30.10S
LAPEER         NOT AVBL
MASON          SUNNY     71  62  73 W3        30.11S
MONROE         SUNNY     72  64  78 CALM      30.09S
MT. CLEMENS    SUNNY     75  62  64 CALM      30.09R
PONTIAC        SUNNY     70  61  73 SW3       30.10S
PORT HOPE        N/A     71  60  68 VRB5      30.06R
PORT HURON     SUNNY     68  66  94 SW6       30.10S
TRI CITIES     MOSUNNY   70  62  76 SW7       30.08S
YPSILANTI      SUNNY     74  62  66 SW5       30.11S
$$
MIZ043>046-050>051-056>058-064>065-071>073-077>080-011500-
SOUTHWEST LOWER MICHIGAN

CITY           SKY/WX    TMP DP  RH WIND       PRES   REMARKS
BATTLE CREEK   SUNNY     71  62  73 S6        30.11S
BENTON HARBOR  SUNNY     73  62  68 W7        30.10R
BIG RAPIDS     SUNNY     67  67 100 CALM      30.08S
COLDWATER      SUNNY     71  63  75 CALM      30.11S
HOLLAND        SUNNY     73  63  70 SW5       30.09S
GRAND RAPIDS   MOSUNNY   73  62  68 W7        30.09S
KALAMAZOO      SUNNY     73  62  68 SW7       30.11R
MARSHALL       SUNNY     71  62  75 W6        30.11S
MUSKEGON       MOSUNNY   71  60  68 W5        30.08R
$$
MIZ016>042-011500-
NORTHERN LOWER MICHIGAN

CITY           SKY/WX    TMP DP  RH WIND       PRES   REMARKS
ALPENA         SUNNY     68  59  73 NW7       30.07R
BEAVER ISLAND  SUNNY     67  62  85 CALM      30.06R
BELLAIRE       SUNNY     67  60  76 S3        30.06S
CADILLAC       SUNNY     68  62  81 CALM      30.08R
CHARLEVOIX     SUNNY     68  63  82 CALM      30.08S
FRANKFORT      SUNNY     69  60  73 W3        30.06S
GAYLORD        SUNNY     68  55  63 VRB3      30.08R
GRAYLING       SUNNY     69  63  80 NW3       30.08S
HARBOR SPRINGS SUNNY     65  60  83 CALM      30.07R
HOUGHTON LAKE  SUNNY     67  59  75 W3        30.08S
MANISTEE       SUNNY     63  61  94 CALM      30.07S
OSCODA         SUNNY     69  60  73 W5        30.06R
PELLSTON       SUNNY     64  58  80 CALM      30.07S
TRAVERSE CITY  SUNNY     70  59  68 CALM      30.05S
$$
MIZ007>008-015-011500-
EASTERN UPPER MICHIGAN

CITY           SKY/WX    TMP DP  RH WIND       PRES   REMARKS
KINROSS        MOSUNNY   64  55  72 W5        30.06S
MACKINAC ISLAN CLOUDY    60  60 100 CALM      30.06R FOG
NEWBERRY       SUNNY     65  52  62 W3        30.06S
S. S. MARIE    SUNNY     67  53  61 VRB5      30.05S
$$
MIZ004>006-011>014-085-011500-
CENTRAL UPPER MICHIGAN

CITY           SKY/WX    TMP DP  RH WIND       PRES   REMARKS
MANISTIQUE     SUNNY     68  55  63 CALM      30.05S
ESCANABA       MOSUNNY   66  54  63 CALM      30.05S
MENOMINEE      SUNNY     66  59  77 CALM      30.04R
SAWYER-GWINN   SUNNY     66  54  63 N3        30.06S
$$
MIZ001>003-009>011-084-011500-
WESTERN UPPER MICHIGAN

CITY           SKY/WX    TMP DP  RH WIND       PRES   REMARKS
IRON MOUNTAIN  SUNNY     63  54  72 VRB3      30.05S
HOUGHTON       CLOUDY    65  50  58 SE3       30.06R
COPPER HARBOR    N/A     59  52  77 E3        30.07R
$$

ABBREVIATIONS USED IN REMARKS
   TC - TEMPERATURE IN CELSIUS
  WCI - WIND CHILL INDEX
   HX - HEAT INDEX
  VSB - VISIBILITY



USA.gov is the U.S. government's official web portal to all federal, state and local government web resources and services.